Regional Weather Roundup
Issued by NWS

Home | Current Version | Previous Version | Graphics & Text | Print | Product List | Glossary On
Versions: 1 2 3 4 5 6 7 8 9 10 11 12 13 14 15 16 17 18 19 20 21 22 23 24 25 26 27
000
ASUS45 KCYS 290310
RWRWY

WYOMING REGIONAL WEATHER ROUNDUP
NATIONAL WEATHER SERVICE CHEYENNE WY
900 PM MDT SUN AUG 28 2016

NOTE:  "FAIR" INDICATES FEW OR NO CLOUDS BELOW 12,000 FEET
WITH NO SIGNIFICANT WEATHER AND/OR OBSTRUCTIONS TO VISIBILITY.

WYZ001-290400-
YELLOWSTONE NATIONAL PARK

CITY           SKY/WX    TMP DP  RH WIND       PRES   REMARKS
LK YELLOWSTONE   N/A     56  36  47 CALM      30.43R
W YELLOWSTONE  NOT AVBL

$$
WYZ002>013-054>058-071-098>099-290400-
NORTHERN WYOMING

CITY           SKY/WX    TMP DP  RH WIND       PRES   REMARKS
JACKSON        FAIR      64  30  27 W8        30.30
CODY           FAIR      72  34  25 NW3       30.19R
GREYBULL       FAIR      78  32  18 NW5       30.07R
WORLAND        FAIR      72  30  21 E5        30.08R
SHERIDAN       FAIR      67  44  43 CALM      30.12R
BUFFALO        FAIR      69  32  25 W10       30.20R
GILLETTE       FAIR      60  36  40 S5        30.13R
HULETT         FAIR      72  41  33 SE6       30.13R
NEWCASTLE      FAIR      73  32  21 E6        30.09R

$$
WYZ014>020-022>026-101>103-290400-
CENTRAL WYOMING

CITY           SKY/WX    TMP DP  RH WIND       PRES   REMARKS
BIG PINEY      FAIR      61  31  32 N12       30.33R
PINEDALE       MOCLDY    59  32  36 NW8       30.35R
DUBOIS         FAIR      61  25  25 W12       30.35R
LANDER         FAIR      73  31  21 SW13      30.18R
RIVERTON       FAIR      75  26  16 NE6       30.18R
CASPER         FAIR      62  44  51 CALM      30.17R
DOUGLAS        FAIR      68  29  23 E5        30.16R

$$
WYZ021-027>030-104>119-290400-
SOUTHERN WYOMING

CITY           SKY/WX    TMP DP  RH WIND       PRES   REMARKS
EVANSTON       FAIR      66  25  21 NW8       30.35R
FORT BRIDGER   FAIR      67  26  21 NW7       30.37R
ROCK SPRINGS   FAIR      69  22  16 W9        30.29R
DIXON          FAIR      60  31  32 E6        30.31R
RAWLINS        FAIR      66  20  17 NE8       30.29R
SARATOGA       FAIR      63  34  34 SE10      30.32R
LARAMIE        FAIR      62  34  35 S12       30.33R
CHEYENNE       FAIR      66  43  43 SE15      30.28R
TORRINGTON     FAIR      72  45  37 S7        30.12R
PINE BLUFFS    FAIR      68  41  37 S10G22    30.22R

$$




USA.gov is the U.S. government's official web portal to all federal, state and local government web resources and services.